EW2748 Weather Reports


Display with metric or nautical units.
time (UTC)temp
F
wind
direction
speed
MPH
gust
MPH
rain 1hr
in
rain 24hr
in
rain mn
in
humidity
%
barometer
mb
20260508113507 46 277 0.0 0.0 0.00 0.00 0.00 93 1018.2
20260508113030 46 277 0.0 0.0 0.00 0.00 0.00 93 1018.2
20260508112503 46 277 0.0 0.0 0.00 0.00 0.00 93 1018.2
20260508112005 46 277 0.0 0.0 0.00 0.00 0.00 92 1018.2
20260508111521 46 277 0.0 0.0 0.00 0.00 0.00 92 1018.1
20260508111019 46 277 0.0 0.0 0.00 0.00 0.00 92 1017.9
20260508110504 46 277 0.0 0.0 0.00 0.00 0.00 91 1017.8
20260508110020 46 277 0.0 0.0 0.00 0.00 0.00 91 1017.7
20260508104514 47 277 0.0 0.0 0.00 0.00 0.00 90 1017.6
20260508104007 47 277 0.0 0.0 0.00 0.00 0.00 90 1017.4
20260508103507 47 277 0.0 0.0 0.00 0.00 0.00 89 1017.4
20260508103014 47 277 0.0 0.0 0.00 0.00 0.00 89 1017.3
20260508102010 47 277 0.0 0.0 0.00 0.00 0.00 88 1017.2
20260508101507 48 277 0.0 0.0 0.00 0.00 0.00 88 1017.2
20260508101006 48 277 0.0 0.0 0.00 0.00 0.00 87 1017.1
20260508100506 48 277 0.0 0.0 0.00 0.00 0.00 87 1017.1
20260508100024 48 277 0.0 0.0 0.00 0.00 0.00 86 1017.1
20260508095503 49 277 0.0 0.0 0.00 0.00 0.00 86 1017.0
20260508095010 49 277 0.0 0.0 0.00 0.00 0.00 85 1016.9
20260508094525 49 277 0.0 0.0 0.00 0.00 0.00 84 1016.7
20260508094007 49 277 0.0 0.0 0.00 0.01 0.00 84 1016.6
20260508093507 50 277 0.0 0.0 0.00 0.02 0.00 84 1016.7
20260508093021 50 277 0.0 0.0 0.00 0.03 0.00 84 1016.6
20260508092006 50 277 0.0 0.0 0.00 0.03 0.00 83 1016.5
20260508091529 51 277 0.0 0.0 0.00 0.03 0.00 84 1016.6
20260508091006 51 277 0.0 0.0 0.00 0.03 0.00 83 1016.6
20260508090510 51 277 0.0 0.0 0.00 0.03 0.00 84 1016.7
20260508090016 51 277 0.0 0.0 0.00 0.03 0.00 81 1016.6
20260508085507 51 277 0.0 0.0 0.00 0.03 0.00 83 1016.5
20260508085012 51 277 0.0 0.0 0.00 0.03 0.00 81 1016.5
20260508084511 51 275 0.0 0.0 0.00 0.03 0.00 80 1016.6
20260508084007 51 275 0.0 0.0 0.00 0.03 0.00 79 1016.4
20260508083509 50 271 0.0 0.0 0.00 0.04 0.00 81 1016.4
20260508082007 51 271 0.0 0.0 0.00 0.11 0.00 84 1016.4
20260508081521 51 272 0.0 0.0 0.00 0.13 0.00 83 1016.4
20260508081008 51 272 0.0 0.0 0.00 0.19 0.00 83 1016.4
20260508080506 51 271 0.0 0.0 0.00 0.25 0.00 81 1016.4
20260508080023 52 271 0.0 0.0 0.00 0.28 0.00 83 1016.4
20260508075510 52 271 0.0 0.0 0.00 0.28 0.00 82 1016.3
20260508075010 52 271 0.0 0.0 0.00 0.28 0.00 82 1016.2
20260508074521 52 271 0.0 0.0 0.00 0.28 0.00 81 1016.2
20260508074008 52 271 0.0 0.0 0.00 0.28 0.00 78 1016.4
20260508073508 52 271 0.0 0.0 0.00 0.28 0.00 79 1016.4
20260508073014 52 271 0.0 0.0 0.00 0.28 0.00 81 1016.3
20260508072513 53 271 0.0 0.0 0.00 0.28 0.00 82 1016.3
20260508072011 53 271 0.0 0.0 0.00 0.31 0.00 79 1016.3
20260508070509 53 271 0.0 0.0 0.00 0.31 0.00 78 1016.3
20260508070027 53 271 0.0 0.0 0.00 0.31 0.00 81 1016.5
20260508065508 53 271 0.0 0.0 0.00 0.31 0.00 80 1016.5
20260508065008 53 271 0.0 0.0 0.00 0.31 0.00 79 1016.5
20260508064532 54 271 0.0 0.0 0.00 0.31 0.00 80 1016.4
20260508064009 54 271 0.0 1.0 0.00 0.31 0.00 77 1016.5
20260508063507 54 271 0.0 1.0 0.00 0.31 0.00 74 1016.6
20260508063026 53 288 0.0 1.0 0.00 0.31 0.00 76 1016.5
20260508062514 53 290 0.0 1.0 0.00 0.31 0.00 77 1016.6
20260508062006 53 290 0.0 1.0 0.00 0.31 0.00 78 1016.7
20260508061519 53 294 0.0 1.0 0.00 0.31 0.00 79 1016.8
20260508061010 52 294 0.0 0.0 0.00 0.31 0.00 80 1016.8
20260508060508 52 294 0.0 0.0 0.00 0.31 0.00 82 1016.8
20260508060024 53 294 0.0 0.0 0.00 0.31 0.00 84 1016.9
20260508055508 53 294 0.0 0.0 0.00 0.31 0.00 84 1017.0
20260508055013 53 294 0.0 0.0 0.00 0.31 0.00 84 1016.9
20260508054519 53 294 0.0 0.0 0.00 0.31 0.00 82 1017.1
20260508054006 53 294 0.0 0.0 0.00 0.31 0.00 81 1017.2
20260508053039 53 294 0.0 1.0 0.00 0.31 0.00 83 1017.2
20260508052506 53 294 0.0 1.0 0.00 0.31 0.00 83 1017.2
20260508052011 53 294 0.0 0.0 0.00 0.31 0.00 82 1017.1
20260508051527 53 306 0.0 0.0 0.00 0.31 0.00 84 1017.0
20260508051010 53 306 0.0 0.0 0.00 0.31 0.00 87 1017.2
20260508050509 53 306 0.0 0.0 0.00 0.31 0.00 86 1017.2
20260508050026 53 306 0.0 0.0 0.00 0.31 0.00 87 1017.2
20260508045508 53 306 0.0 0.0 0.00 0.31 0.31 86 1017.1
20260508045006 52 323 0.0 0.0 0.00 0.31 0.31 89 1017.1
20260508044522 52 323 0.0 0.0 0.00 0.31 0.31 90 1017.0
20260508044011 53 323 0.0 0.0 0.00 0.31 0.31 91 1017.1
20260508043509 53 323 0.0 0.0 0.00 0.31 0.31 91 1016.9
20260508042015 53 323 0.0 0.0 0.00 0.31 0.31 90 1017.0
20260508041519 53 323 0.0 0.0 0.00 0.31 0.31 89 1016.9
20260508041008 53 323 0.0 0.0 0.00 0.31 0.31 89 1017.0
20260508040512 53 323 0.0 0.0 0.00 0.31 0.31 89 1017.1
20260508040025 53 323 0.0 0.0 0.00 0.31 0.31 89 1017.1
20260508035507 53 323 0.0 0.0 0.00 0.31 0.31 89 1017.0
20260508035008 53 323 0.0 0.0 0.00 0.31 0.31 89 1017.0
20260508034508 54 323 0.0 0.0 0.00 0.31 0.31 89 1016.9
20260508034003 54 323 0.0 0.0 0.00 0.31 0.31 89 1017.0
20260508033503 54 323 0.0 0.0 0.00 0.31 0.31 88 1017.1
20260508033019 54 323 0.0 0.0 0.00 0.31 0.31 89 1017.1
20260508032504 54 323 0.0 0.0 0.00 0.31 0.31 88 1017.1
20260508032002 54 323 0.0 0.0 0.00 0.31 0.31 88 1017.0
20260508031504 55 323 0.0 0.0 0.00 0.31 0.31 88 1016.9
20260508031003 55 323 0.0 0.0 0.00 0.31 0.31 87 1017.0
20260508030504 55 323 0.0 0.0 0.00 0.32 0.31 87 1016.9
20260508025504 55 323 0.0 0.0 0.00 0.32 0.31 86 1016.9
20260508025005 55 323 0.0 0.0 0.00 0.32 0.31 85 1016.8
20260508024520 56 323 0.0 0.0 0.00 0.32 0.31 85 1016.8
20260508024004 56 323 0.0 0.0 0.00 0.32 0.31 85 1016.7
20260508023505 56 323 0.0 0.0 0.00 0.36 0.31 84 1016.8
20260508023014 56 323 0.0 0.0 0.00 0.36 0.31 83 1016.7
20260508022507 56 323 0.0 0.0 0.00 0.38 0.31 82 1016.6
20260508022004 56 323 0.0 0.0 0.00 0.39 0.31 82 1016.6
20260508021510 57 323 0.0 0.0 0.00 0.40 0.31 82 1016.5
20260508021006 57 323 0.0 0.0 0.00 0.40 0.31 82 1016.6
20260508020506 57 323 0.0 0.0 0.00 0.40 0.31 82 1016.4
20260508020008 57 323 0.0 0.0 0.00 0.40 0.31 81 1016.4
20260508015504 57 323 0.0 0.0 0.00 0.40 0.31 80 1016.4
20260508015004 58 323 0.0 0.0 0.00 0.40 0.31 80 1016.5
20260508014004 58 323 0.0 0.0 0.00 0.40 0.31 78 1016.3
20260508013504 58 323 0.0 0.0 0.00 0.40 0.31 77 1016.3
20260508012505 59 323 0.0 0.0 0.00 0.40 0.31 75 1016.3
20260508012006 59 323 0.0 0.0 0.00 0.40 0.31 74 1016.1
20260508011511 59 323 0.0 0.0 0.00 0.40 0.31 73 1016.1
20260508011004 59 323 0.0 0.0 0.00 0.40 0.31 73 1016.1
20260508010503 60 323 0.0 0.0 0.00 0.40 0.31 73 1016.0
20260508010029 60 323 0.0 0.0 0.00 0.40 0.31 71 1015.8
20260508005504 60 323 0.0 0.0 0.00 0.40 0.31 70 1015.7
20260508005003 61 323 0.0 0.0 0.00 0.40 0.31 69 1015.9
20260508004513 61 323 0.0 0.0 0.00 0.40 0.31 68 1015.9
20260508004004 61 323 0.0 0.0 0.00 0.40 0.31 67 1015.9
20260508003503 62 323 0.0 0.0 0.00 0.40 0.31 68 1016.0
20260508003012 62 282 0.0 0.0 0.00 0.40 0.31 66 1015.9
20260508002504 63 282 0.0 0.0 0.00 0.40 0.31 63 1015.8
20260508002006 63 282 0.0 0.0 0.00 0.40 0.31 62 1015.8
20260508001510 64 282 0.0 0.0 0.00 0.40 0.31 59 1015.7
20260508001003 64 282 0.0 0.0 0.00 0.40 0.31 60 1015.6
20260508000504 65 282 0.0 1.0 0.00 0.40 0.31 59 1015.4
20260508000005 65 283 0.0 3.0 0.00 0.40 0.31 56 1015.4
20260507235506 65 255 0.0 3.0 0.00 0.40 0.31 56 1015.2
20260507235007 65 295 0.0 2.0 0.00 0.40 0.31 56 1015.2
20260507234514 65 295 0.0 2.0 0.00 0.40 0.31 56 1015.2
20260507234007 66 306 0.0 2.0 0.00 0.41 0.31 57 1015.1
20260507233504 66 281 0.0 2.0 0.00 0.41 0.31 57 1015.1
20260507233014 66 268 0.0 2.0 0.00 0.41 0.31 55 1015.1
20260507232003 66 284 0.0 5.0 0.00 0.42 0.31 54 1015.0
20260507231004 67 304 0.0 6.0 0.00 0.42 0.31 54 1015.1
20260507230504 67 35 0.0 6.0 0.00 0.42 0.31 54 1015.2
20260507230021 67 281 0.0 5.0 0.00 0.42 0.31 54 1014.8
20260507225505 67 286 0.0 5.0 0.00 0.42 0.31 53 1015.2
20260507225004 67 297 0.0 4.0 0.00 0.42 0.31 53 1015.2
20260507224510 67 29 1.0 4.0 0.00 0.43 0.31 53 1015.2
20260507224006 67 294 1.0 5.0 0.00 0.43 0.31 53 1015.2
20260507223507 67 288 1.0 5.0 0.00 0.43 0.31 54 1015.3
20260507223011 67 4 0.0 3.0 0.00 0.43 0.31 55 1015.3
20260507222503 67 310 0.0 3.0 0.00 0.44 0.31 53 1015.2
20260507221517 67 276 0.0 6.0 0.00 0.47 0.31 52 1015.1
20260507221006 68 297 1.0 6.0 0.00 0.47 0.31 53 1015.1
20260507220504 68 282 1.0 4.0 0.00 0.47 0.31 51 1015.2
20260507215512 68 20 1.0 5.0 0.00 0.47 0.31 52 1015.1
20260507215005 68 271 1.0 5.0 0.00 0.47 0.31 52 1015.0
20260507214517 68 301 0.0 4.0 0.00 0.47 0.31 53 1015.0
20260507214004 68 210 0.0 4.0 0.00 0.47 0.31 53 1015.0
20260507213504 68 280 0.0 5.0 0.00 0.47 0.31 53 1015.0
20260507213017 68 44 1.0 6.0 0.00 0.50 0.31 51 1015.0
20260507212506 68 258 0.0 6.0 0.00 0.50 0.31 56 1015.1
20260507212010 67 32 1.0 5.0 0.00 0.50 0.31 52 1015.1
20260507211005 68 304 1.0 6.0 0.00 0.50 0.31 52 1015.0
20260507210014 69 277 0.0 4.0 0.00 0.50 0.31 53 1015.1
20260507205507 68 356 1.0 4.0 0.00 0.51 0.31 52 1015.0
20260507205007 69 287 1.0 4.0 0.00 0.57 0.31 50 1015.2
20260507204515 69 279 0.0 8.0 0.00 0.61 0.31 54 1015.1
20260507204005 68 61 1.0 8.0 0.00 0.63 0.31 53 1015.1
20260507203504 68 267 1.0 7.0 0.00 0.67 0.31 54 1015.0
20260507203029 67 11 4.0 7.0 0.00 0.68 0.31 52 1015.1
20260507202506 67 268 3.0 5.0 0.00 0.73 0.31 55 1015.2
20260507201518 68 288 2.0 6.0 0.00 0.82 0.31 53 1015.2
20260507201015 68 283 2.0 10.0 0.00 0.98 0.31 56 1015.2
20260507200504 68 276 3.0 10.0 0.00 1.05 0.31 53 1015.2
20260507200044 68 276 0.0 5.0 0.00 1.08 0.31 60 1015.1
20260507194006 68 307 0.0 6.0 0.00 1.13 0.31 57 1015.0
20260507193507 68 300 2.0 7.0 0.00 1.13 0.31 53 1015.1
20260507193034 69 307 2.0 8.0 0.00 1.13 0.31 55 1015.2
20260507192509 68 310 3.0 8.0 0.00 1.13 0.31 56 1015.1
20260507192008 68 259 2.0 4.0 0.00 1.13 0.31 55 1014.9
20260507191521 69 279 1.0 8.0 0.00 1.13 0.31 54 1014.9
20260507191006 68 280 0.0 10.0 0.00 1.16 0.31 57 1015.0
20260507190507 68 23 5.0 10.0 0.00 1.16 0.31 53 1015.0
20260507190031 69 265 0.0 6.0 0.00 1.16 0.31 57 1014.9
20260507185506 68 283 2.0 6.0 0.00 1.17 0.31 53 1014.9
20260507185005 68 265 2.0 6.0 0.00 1.19 0.31 55 1015.1
20260507184522 67 289 0.0 11.0 0.00 1.19 0.31 57 1015.2
20260507184009 67 89 2.0 11.0 0.00 1.19 0.31 56 1015.1
20260507183505 67 272 0.0 8.0 0.00 1.19 0.31 58 1015.2
20260507182507 67 33 2.0 8.0 0.00 1.20 0.31 57 1015.0
20260507182008 67 276 1.0 7.0 0.00 1.20 0.31 58 1015.2
20260507181516 67 274 4.0 8.0 0.00 1.21 0.31 56 1015.3
20260507181007 67 1 1.0 8.0 0.00 1.23 0.31 58 1015.3
20260507180507 67 287 0.0 4.0 0.00 1.27 0.31 60 1015.4
20260507180016 66 285 2.0 7.0 0.00 1.34 0.31 61 1015.6
20260507175507 66 278 2.0 7.0 0.00 1.37 0.31 57 1015.6
20260507175004 66 297 2.0 6.0 0.00 1.39 0.31 59 1015.6
20260507174517 66 35 1.0 6.0 0.00 1.40 0.31 58 1015.7
20260507174007 66 55 2.0 6.0 0.00 1.41 0.31 58 1015.7
20260507173508 66 315 1.0 4.0 0.00 1.43 0.31 59 1015.8
20260507173015 65 283 2.0 5.0 0.00 1.45 0.31 60 1015.8
20260507172505 65 314 1.0 7.0 0.00 1.47 0.31 61 1015.9
20260507172009 64 271 2.0 7.0 0.00 1.60 0.31 61 1016.0
20260507171522 65 271 1.0 6.0 0.00 1.61 0.31 61 1016.1
20260507171004 64 278 2.0 6.0 0.00 1.61 0.31 63 1016.0
20260507170508 64 295 3.0 6.0 0.00 1.61 0.31 60 1015.9
20260507170022 63 291 2.0 8.0 0.00 1.61 0.31 62 1015.9
20260507165502 63 304 4.0 8.0 0.00 1.63 0.31 62 1016.0
20260507164518 63 8 1.0 10.0 0.00 1.63 0.31 64 1016.1
20260507164014 63 292 3.0 10.0 0.00 1.63 0.31 63 1016.1
20260507163504 62 281 0.0 10.0 0.00 1.63 0.31 67 1016.1
20260507163020 62 294 2.0 10.0 0.00 1.63 0.31 66 1016.3
20260507162004 62 11 1.0 3.0 0.00 1.63 0.31 68 1016.1
20260507161518 61 11 1.0 7.0 0.00 1.63 0.31 70 1016.0
20260507161007 61 274 2.0 7.0 0.00 1.63 0.31 69 1016.0
20260507160510 61 335 1.0 7.0 0.00 1.63 0.31 69 1016.0
20260507160013 61 262 1.0 7.0 0.00 1.63 0.31 73 1016.0
20260507155508 60 67 1.0 9.0 0.00 1.63 0.31 74 1016.1
20260507155011 60 305 1.0 9.0 0.00 1.63 0.31 72 1016.1
20260507154528 60 290 1.0 7.0 0.00 1.63 0.31 72 1016.0
20260507153508 59 296 0.0 5.0 0.00 1.63 0.31 74 1015.9
20260507153024 59 1 1.0 5.0 0.00 1.63 0.31 75 1016.0
20260507152504 59 289 0.0 5.0 0.00 1.63 0.31 76 1015.8
20260507152007 58 356 1.0 5.0 0.00 1.63 0.31 78 1016.0
20260507151527 58 268 1.0 5.0 0.00 1.63 0.31 77 1016.1
20260507151011 58 297 1.0 5.0 0.00 1.63 0.31 78 1016.0
20260507150504 58 319 1.0 5.0 0.00 1.63 0.31 80 1016.0
20260507150023 57 25 2.0 6.0 0.00 1.63 0.31 80 1015.9
20260507145509 57 21 0.0 6.0 0.00 1.64 0.31 84 1016.0
20260507144525 56 81 1.0 7.0 0.00 1.64 0.31 85 1016.0
20260507144008 56 30 0.0 7.0 0.00 1.64 0.31 86 1016.0
20260507143507 55 297 1.0 5.0 0.00 1.64 0.31 89 1015.9
20260507143013 55 33 1.0 7.0 0.00 1.64 0.31 90 1015.9
20260507142508 55 332 2.0 7.0 0.00 1.64 0.31 89 1015.9
20260507142013 54 295 1.0 5.0 0.00 1.64 0.31 91 1015.8
20260507141508 54 316 1.0 5.0 0.00 1.64 0.31 91 1015.8
20260507141010 54 13 1.0 6.0 0.00 1.64 0.31 92 1015.7
20260507140507 54 70 0.0 6.0 0.00 1.64 0.31 93 1015.7
20260507140023 54 331 1.0 6.0 0.00 1.64 0.31 93 1015.6
20260507135508 54 285 0.0 4.0 0.00 1.64 0.31 94 1015.6
20260507135005 54 309 1.0 4.0 0.00 1.64 0.31 93 1015.6
20260507134524 54 38 0.0 3.0 0.00 1.64 0.31 94 1015.5
20260507134008 54 15 0.0 3.0 0.00 1.64 0.31 94 1015.5
20260507133022 54 332 1.0 8.0 0.00 1.66 0.31 95 1015.1
20260507132508 54 281 1.0 8.0 0.00 1.73 0.31 95 1015.0
20260507132005 53 315 2.0 5.0 0.00 2.03 0.31 95 1014.9
20260507131525 53 309 1.0 7.0 0.00 2.08 0.31 95 1014.8
20260507131009 54 25 1.0 7.0 0.00 2.17 0.31 96 1014.7
20260507130510 53 306 0.0 5.0 0.00 2.19 0.31 97 1014.7
20260507130016 53 312 0.0 5.0 0.00 2.21 0.31 96 1014.7
20260507125508 53 29 1.0 5.0 0.00 2.23 0.31 96 1014.7
20260507125011 53 281 0.0 4.0 0.00 2.24 0.31 96 1014.7
20260507124514 53 281 0.0 3.0 0.00 2.25 0.31 97 1014.7
20260507124005 53 285 0.0 3.0 0.00 2.25 0.31 96 1014.9
20260507123509 53 289 0.0 4.0 0.00 2.25 0.31 97 1014.8
20260507123027 53 271 0.0 4.0 0.00 2.25 0.31 97 1014.7
20260507122009 53 280 0.0 4.0 0.00 2.25 0.31 97 1014.5
20260507121526 53 319 0.0 4.0 0.00 2.25 0.31 97 1014.5
20260507121008 53 354 0.0 2.0 0.00 2.25 0.31 97 1014.6
20260507120507 53 307 0.0 2.0 0.00 2.25 0.31 97 1014.5
20260507120032 53 279 0.0 4.0 0.00 2.25 0.31 97 1014.4
20260507115509 53 26 0.0 4.0 0.00 2.25 0.31 97 1014.2
20260507115007 53 277 1.0 3.0 0.00 2.25 0.31 97 1014.1
20260507114520 53 301 0.0 2.0 0.00 2.25 0.31 97 1014.1
20260507114008 53 293 0.0 2.0 0.00 2.25 0.31 97 1014.0